Time,TemperatureF,DewpointF,PressureIn,WindDirection,WindDirectionDegrees,WindSpeedMPH,WindSpeedGustMPH,Humidity,HourlyPrecipIn,Conditions,Clouds,dailyrainin,SoftwareType,DateUTC
2013-04-01 00:00:00,36.1,35.1,29.69,SE,124,5.0,9.0,96,0.05,,---,0.00,VWS V14.01,2013-04-01 04:00:00,
2013-04-01 00:01:00,36.1,35.1,29.69,SSE,150,5.0,11.0,96,0.05,,---,0.00,VWS V14.01,2013-04-01 04:01:00,
2013-04-01 00:03:00,36.1,35.1,29.69,SE,143,7.0,11.0,96,0.05,,---,0.00,VWS V14.01,2013-04-01 04:03:00,
2013-04-01 00:06:00,36.1,35.1,29.69,SE,142,12.0,12.0,96,0.06,,---,0.01,VWS V14.01,2013-04-01 04:06:00,
2013-04-01 00:11:00,36.1,35.3,29.68,SE,144,8.0,11.0,97,0.05,,---,0.01,VWS V14.01,2013-04-01 04:11:00,
2013-04-01 00:15:00,36.1,35.3,29.68,SSE,162,6.0,14.0,97,0.05,,---,0.01,VWS V14.01,2013-04-01 04:15:00,
2013-04-01 00:21:00,36.1,35.3,29.68,SSW,209,4.0,10.0,97,0.04,,---,0.01,VWS V14.01,2013-04-01 04:21:00,
2013-04-01 00:26:00,36.1,35.3,29.68,SSE,149,7.0,9.0,97,0.04,,---,0.01,VWS V14.01,2013-04-01 04:26:00,
2013-04-01 00:31:00,36.1,35.3,29.68,SSE,167,7.0,8.0,97,0.03,,---,0.01,VWS V14.01,2013-04-01 04:31:00,
2013-04-01 00:36:00,36.0,35.2,29.67,SSE,160,7.0,10.0,97,0.03,,---,0.01,VWS V14.01,2013-04-01 04:36:00,
2013-04-01 00:41:00,36.0,35.2,29.67,SSE,159,7.0,10.0,97,0.02,,---,0.01,VWS V14.01,2013-04-01 04:41:00,
2013-04-01 00:46:00,36.0,35.2,29.67,South,181,5.0,9.0,97,0.02,,---,0.01,VWS V14.01,2013-04-01 04:46:00,
2013-04-01 00:51:00,36.0,35.2,29.67,SSW,200,4.0,8.0,97,0.02,,---,0.02,VWS V14.01,2013-04-01 04:51:00,
2013-04-01 00:57:00,35.9,35.1,29.67,SSE,155,3.0,7.0,97,0.02,,---,0.02,VWS V14.01,2013-04-01 04:57:00,
2013-04-01 01:02:00,35.9,35.1,29.67,SSW,198,1.0,5.0,97,0.02,,---,0.02,VWS V14.01,2013-04-01 05:02:00,
2013-04-01 01:07:00,35.9,35.1,29.67,WSW,238,2.0,5.0,97,0.01,,---,0.02,VWS V14.01,2013-04-01 05:07:00,
2013-04-01 01:12:00,35.8,35.0,29.67,SW,221,3.0,3.0,97,0.01,,---,0.02,VWS V14.01,2013-04-01 05:12:00,
2013-04-01 01:17:00,35.8,35.0,29.67,SSW,211,2.0,3.0,97,0.01,,---,0.02,VWS V14.01,2013-04-01 05:17:00,
2013-04-01 01:22:00,35.7,34.9,29.67,WSW,246,2.0,2.0,97,0.01,,---,0.02,VWS V14.01,2013-04-01 05:22:00,
2013-04-01 01:27:00,35.7,34.9,29.67,WSW,242,1.0,2.0,97,0.01,,---,0.02,VWS V14.01,2013-04-01 05:27:00,
2013-04-01 01:32:00,35.7,34.9,29.66,West,274,1.0,2.0,97,0.01,,---,0.02,VWS V14.01,2013-04-01 05:32:00,
2013-04-01 01:37:00,35.7,34.9,29.66,WNW,283,1.0,2.0,97,0.01,,---,0.02,VWS V14.01,2013-04-01 05:37:00,
2013-04-01 01:42:00,35.7,34.9,29.66,WSW,249,0.0,1.0,97,0.01,,---,0.02,VWS V14.01,2013-04-01 05:42:00,
2013-04-01 01:47:00,35.6,34.8,29.65,WSW,249,0.0,1.0,97,0.01,,---,0.02,VWS V14.01,2013-04-01 05:47:00,
2013-04-01 01:52:00,35.6,34.8,29.65,SW,222,1.0,1.0,97,0.00,,---,0.02,VWS V14.01,2013-04-01 05:52:00,
2013-04-01 01:57:00,35.6,34.8,29.65,SSE,165,0.0,1.0,97,0.00,,---,0.02,VWS V14.01,2013-04-01 05:57:00,
2013-04-01 02:02:00,35.5,34.7,29.64,SSE,166,0.0,1.0,97,0.00,,---,0.02,VWS V14.01,2013-04-01 06:02:00,
2013-04-01 02:07:00,35.5,34.7,29.64,SSE,166,0.0,0.0,97,0.00,,---,0.02,VWS V14.01,2013-04-01 06:07:00,
2013-04-01 02:12:00,35.4,34.6,29.64,SSE,166,0.0,0.0,97,0.00,,---,0.02,VWS V14.01,2013-04-01 06:12:00,
2013-04-01 02:17:00,35.5,34.7,29.64,West,264,0.0,1.0,97,0.00,,---,0.02,VWS V14.01,2013-04-01 06:17:00,
2013-04-01 02:22:00,35.5,34.7,29.64,SW,221,2.0,4.0,97,0.00,,---,0.02,VWS V14.01,2013-04-01 06:22:00,
2013-04-01 02:28:00,35.6,34.8,29.63,SW,226,1.0,5.0,97,0.00,,---,0.02,VWS V14.01,2013-04-01 06:28:00,
2013-04-01 02:33:00,35.5,34.7,29.63,SW,224,1.0,3.0,97,0.00,,---,0.02,VWS V14.01,2013-04-01 06:33:00,
2013-04-01 02:38:00,35.4,34.6,29.63,SW,227,1.0,2.0,97,0.00,,---,0.02,VWS V14.01,2013-04-01 06:38:00,
2013-04-01 02:43:00,35.3,34.5,29.63,WSW,246,1.0,2.0,97,0.00,,---,0.02,VWS V14.01,2013-04-01 06:43:00,
2013-04-01 02:48:00,35.3,34.5,29.63,WSW,250,1.0,2.0,97,0.00,,---,0.02,VWS V14.01,2013-04-01 06:48:00,
2013-04-01 02:53:00,35.3,34.5,29.63,SW,226,1.0,2.0,97,0.00,,---,0.02,VWS V14.01,2013-04-01 06:53:00,
2013-04-01 02:58:00,35.3,34.5,29.62,SW,222,0.0,2.0,97,0.00,,---,0.02,VWS V14.01,2013-04-01 06:58:00,
2013-04-01 03:03:00,35.3,34.5,29.62,SW,232,0.0,1.0,97,0.00,,---,0.02,VWS V14.01,2013-04-01 07:03:00,
2013-04-01 03:09:00,35.3,34.5,29.63,WSW,245,1.0,1.0,97,0.00,,---,0.02,VWS V14.01,2013-04-01 07:09:00,
2013-04-01 03:14:00,35.3,34.5,29.63,West,278,0.0,2.0,97,0.00,,---,0.02,VWS V14.01,2013-04-01 07:14:00,
2013-04-01 03:19:00,35.2,34.4,29.62,NW,312,1.0,3.0,97,0.00,,---,0.02,VWS V14.01,2013-04-01 07:19:00,
2013-04-01 03:24:00,35.1,34.3,29.62,NW,323,0.0,3.0,97,0.00,,---,0.02,VWS V14.01,2013-04-01 07:24:00,
2013-04-01 03:30:00,34.9,34.1,29.61,WNW,290,0.0,2.0,97,0.00,,---,0.02,VWS V14.01,2013-04-01 07:30:00,
2013-04-01 03:35:00,34.9,34.1,29.61,WNW,285,1.0,2.0,97,0.00,,---,0.02,VWS V14.01,2013-04-01 07:35:00,
2013-04-01 03:41:00,34.9,34.1,29.61,West,276,0.0,2.0,97,0.00,,---,0.02,VWS V14.01,2013-04-01 07:41:00,
2013-04-01 03:46:00,34.9,34.1,29.61,WSW,251,1.0,3.0,97,0.00,,---,0.02,VWS V14.01,2013-04-01 07:46:00,
2013-04-01 03:51:00,34.9,34.1,29.61,WNW,285,1.0,2.0,97,0.00,,---,0.02,VWS V14.01,2013-04-01 07:51:00,
2013-04-01 03:56:00,34.8,34.0,29.61,WNW,288,2.0,3.0,97,0.00,,---,0.02,VWS V14.01,2013-04-01 07:56:00,
2013-04-01 04:01:00,34.7,33.9,29.61,West,260,1.0,3.0,97,0.00,,---,0.02,VWS V14.01,2013-04-01 08:01:00,
2013-04-01 04:06:00,34.8,34.0,29.61,SW,236,1.0,2.0,97,0.00,,---,0.02,VWS V14.01,2013-04-01 08:06:00,
2013-04-01 04:11:00,34.8,34.0,29.61,SW,236,1.0,3.0,97,0.00,,---,0.02,VWS V14.01,2013-04-01 08:11:00,
2013-04-01 04:16:00,34.8,34.0,29.61,SW,235,0.0,2.0,97,0.00,,---,0.02,VWS V14.01,2013-04-01 08:16:00,
2013-04-01 04:21:00,34.8,34.0,29.61,SW,222,1.0,2.0,97,0.00,,---,0.02,VWS V14.01,2013-04-01 08:21:00,
2013-04-01 04:26:00,34.7,33.9,29.61,WSW,241,2.0,3.0,97,0.00,,---,0.02,VWS V14.01,2013-04-01 08:26:00,
2013-04-01 04:31:00,34.6,33.8,29.61,West,267,1.0,2.0,97,0.00,,---,0.02,VWS V14.01,2013-04-01 08:31:00,
2013-04-01 04:36:00,34.6,33.8,29.61,West,281,2.0,2.0,97,0.00,,---,0.02,VWS V14.01,2013-04-01 08:36:00,
2013-04-01 04:41:00,34.6,33.8,29.61,West,260,1.0,2.0,97,0.00,,---,0.02,VWS V14.01,2013-04-01 08:41:00,
2013-04-01 04:46:00,34.8,34.0,29.61,WSW,249,1.0,2.0,97,0.00,,---,0.02,VWS V14.01,2013-04-01 08:46:00,
2013-04-01 04:51:00,34.9,34.1,29.62,West,259,0.0,2.0,97,0.00,,---,0.02,VWS V14.01,2013-04-01 08:51:00,
2013-04-01 04:56:00,34.7,33.9,29.62,West,259,1.0,2.0,97,0.00,,---,0.02,VWS V14.01,2013-04-01 08:56:00,
2013-04-01 05:01:00,34.6,33.8,29.62,SW,215,2.0,3.0,97,0.00,,---,0.02,VWS V14.01,2013-04-01 09:01:00,
2013-04-01 05:06:00,34.6,33.8,29.62,SW,226,1.0,3.0,97,0.00,,---,0.02,VWS V14.01,2013-04-01 09:06:00,
2013-04-01 05:11:00,34.6,33.8,29.62,West,273,2.0,3.0,97,0.00,,---,0.02,VWS V14.01,2013-04-01 09:11:00,
2013-04-01 05:16:00,34.6,33.8,29.63,West,276,1.0,4.0,97,0.00,,---,0.02,VWS V14.01,2013-04-01 09:16:00,
2013-04-01 05:21:00,34.5,33.7,29.63,WNW,283,3.0,4.0,97,0.00,,---,0.02,VWS V14.01,2013-04-01 09:21:00,
2013-04-01 05:26:00,34.7,33.9,29.63,West,280,4.0,8.0,97,0.00,,---,0.02,VWS V14.01,2013-04-01 09:26:00,
2013-04-01 05:31:00,35.1,34.3,29.63,West,263,5.0,7.0,97,0.00,,---,0.02,VWS V14.01,2013-04-01 09:31:00,
2013-04-01 05:36:00,35.5,34.7,29.63,West,279,7.0,13.0,97,0.00,,---,0.02,VWS V14.01,2013-04-01 09:36:00,
2013-04-01 05:41:00,36.0,35.2,29.63,West,268,6.0,9.0,97,0.00,,---,0.02,VWS V14.01,2013-04-01 09:41:00,
2013-04-01 05:46:00,36.5,35.7,29.63,West,271,8.0,13.0,97,0.00,,---,0.02,VWS V14.01,2013-04-01 09:46:00,
2013-04-01 05:51:00,36.8,36.0,29.63,West,279,7.0,13.0,97,0.00,,---,0.02,VWS V14.01,2013-04-01 09:51:00,
2013-04-01 05:56:00,37.2,36.4,29.63,West,267,8.0,14.0,97,0.00,,---,0.02,VWS V14.01,2013-04-01 09:56:00,
2013-04-01 06:03:00,37.7,36.7,29.63,West,264,3.0,13.0,96,0.00,,---,0.02,VWS V14.01,2013-04-01 10:03:00,
2013-04-01 06:10:00,37.7,36.4,29.62,West,273,3.0,7.0,95,0.00,,---,0.02,VWS V14.01,2013-04-01 10:10:00,
2013-04-01 06:15:00,37.5,36.2,29.62,WNW,288,4.0,6.0,95,0.00,,---,0.02,VWS V14.01,2013-04-01 10:15:00,
2013-04-01 06:20:00,37.4,36.1,29.62,WSW,245,8.0,11.0,95,0.00,,---,0.02,VWS V14.01,2013-04-01 10:20:00,
2013-04-01 06:25:00,37.5,36.2,29.63,West,271,4.0,7.0,95,0.00,,---,0.02,VWS V14.01,2013-04-01 10:25:00,
2013-04-01 06:30:00,37.5,36.2,29.63,WSW,249,5.0,9.0,95,0.00,,---,0.02,VWS V14.01,2013-04-01 10:30:00,
2013-04-01 06:35:00,37.3,36.0,29.63,WSW,257,2.0,6.0,95,0.00,,---,0.02,VWS V14.01,2013-04-01 10:35:00,
2013-04-01 06:40:00,37.2,35.9,29.63,West,279,3.0,8.0,95,0.00,,---,0.02,VWS V14.01,2013-04-01 10:40:00,
2013-04-01 06:45:00,37.1,35.8,29.63,West,262,3.0,7.0,95,0.00,,---,0.02,VWS V14.01,2013-04-01 10:45:00,
2013-04-01 06:50:00,37.0,35.7,29.64,West,267,2.0,4.0,95,0.00,,---,0.02,VWS V14.01,2013-04-01 10:50:00,
2013-04-01 06:55:00,36.9,35.6,29.64,West,267,3.0,4.0,95,0.00,,---,0.02,VWS V14.01,2013-04-01 10:55:00,
2013-04-01 07:00:00,37.0,35.7,29.64,West,274,2.0,4.0,95,0.00,,---,0.02,VWS V14.01,2013-04-01 11:00:00,
2013-04-01 07:05:00,37.0,35.7,29.64,WNW,285,1.0,2.0,95,0.00,,---,0.02,VWS V14.01,2013-04-01 11:05:00,
2013-04-01 07:10:00,37.2,35.9,29.64,West,279,1.0,4.0,95,0.00,,---,0.02,VWS V14.01,2013-04-01 11:10:00,
2013-04-01 07:15:00,37.3,36.0,29.64,WSW,245,2.0,3.0,95,0.00,,---,0.02,VWS V14.01,2013-04-01 11:15:00,
2013-04-01 07:20:00,37.5,35.9,29.63,WSW,238,1.0,4.0,94,0.00,,---,0.02,VWS V14.01,2013-04-01 11:20:00,
2013-04-01 07:25:00,37.7,36.1,29.63,SSW,208,4.0,5.0,94,0.00,,---,0.02,VWS V14.01,2013-04-01 11:25:00,
2013-04-01 07:30:00,37.9,36.3,29.63,SW,236,2.0,5.0,94,0.00,,---,0.02,VWS V14.01,2013-04-01 11:30:00,
2013-04-01 07:35:00,37.9,36.1,29.63,SW,221,3.0,5.0,93,0.00,,---,0.02,VWS V14.01,2013-04-01 11:35:00,
2013-04-01 07:40:00,37.9,36.1,29.63,SSW,207,3.0,5.0,93,0.00,,---,0.02,VWS V14.01,2013-04-01 11:40:00,
2013-04-01 07:45:00,38.0,36.2,29.63,SW,218,2.0,5.0,93,0.00,,---,0.02,VWS V14.01,2013-04-01 11:45:00,
2013-04-01 07:50:00,38.1,36.3,29.63,South,186,3.0,6.0,93,0.00,,---,0.02,VWS V14.01,2013-04-01 11:50:00,
2013-04-01 07:55:00,38.3,36.5,29.63,SW,221,6.0,7.0,93,0.00,,---,0.02,VWS V14.01,2013-04-01 11:55:00,
2013-04-01 08:00:00,38.4,36.3,29.62,SSW,205,5.0,6.0,92,0.00,,---,0.02,VWS V14.01,2013-04-01 12:00:00,
2013-04-01 08:05:00,38.5,36.4,29.62,SSE,153,3.0,6.0,92,0.00,,---,0.02,VWS V14.01,2013-04-01 12:05:00,
2013-04-01 08:10:00,38.5,36.4,29.61,SSE,157,3.0,4.0,92,0.00,,---,0.02,VWS V14.01,2013-04-01 12:10:00,
2013-04-01 08:15:00,38.3,36.2,29.61,SE,143,3.0,4.0,92,0.00,,---,0.02,VWS V14.01,2013-04-01 12:15:00,
2013-04-01 08:20:00,38.2,36.4,29.61,SSE,157,3.0,5.0,93,0.00,,---,0.02,VWS V14.01,2013-04-01 12:20:00,
2013-04-01 08:25:00,38.2,36.4,29.62,SSE,157,5.0,5.0,93,0.00,,---,0.02,VWS V14.01,2013-04-01 12:25:00,
2013-04-01 08:30:00,38.4,36.6,29.61,South,172,4.0,5.0,93,0.00,,---,0.02,VWS V14.01,2013-04-01 12:30:00,
2013-04-01 08:36:00,38.8,37.0,29.61,SW,221,4.0,5.0,93,0.00,,---,0.02,VWS V14.01,2013-04-01 12:36:00,
2013-04-01 08:41:00,39.1,37.2,29.61,SW,219,3.0,5.0,93,0.00,,---,0.02,VWS V14.01,2013-04-01 12:41:00,
2013-04-01 08:46:00,39.3,37.2,29.60,South,170,3.0,5.0,92,0.00,,---,0.02,VWS V14.01,2013-04-01 12:46:00,
2013-04-01 08:51:00,39.5,37.4,29.60,SW,227,2.0,6.0,92,0.00,,---,0.02,VWS V14.01,2013-04-01 12:51:00,
2013-04-01 08:56:00,39.7,37.3,29.60,SW,235,3.0,5.0,91,0.00,,---,0.02,VWS V14.01,2013-04-01 12:56:00,
2013-04-01 09:01:00,39.9,37.5,29.60,SSW,203,2.0,4.0,91,0.00,,---,0.02,VWS V14.01,2013-04-01 13:01:00,
2013-04-01 09:06:00,40.3,37.9,29.60,SSE,152,3.0,4.0,91,0.00,,---,0.02,VWS V14.01,2013-04-01 13:06:00,
2013-04-01 09:11:00,40.7,38.3,29.59,South,187,2.0,6.0,91,0.00,,---,0.02,VWS V14.01,2013-04-01 13:11:00,
2013-04-01 09:16:00,41.1,38.4,29.60,SSE,156,3.0,4.0,90,0.00,,---,0.02,VWS V14.01,2013-04-01 13:16:00,
2013-04-01 09:21:00,41.5,38.8,29.59,SSE,167,4.0,5.0,90,0.00,,---,0.02,VWS V14.01,2013-04-01 13:21:00,
2013-04-01 09:26:00,41.9,38.9,29.59,SSE,163,8.0,9.0,89,0.00,,---,0.02,VWS V14.01,2013-04-01 13:26:00,
2013-04-01 09:31:00,42.3,39.3,29.59,SW,221,6.0,9.0,89,0.00,,---,0.02,VWS V14.01,2013-04-01 13:31:00,
2013-04-01 09:36:00,42.7,39.4,29.59,SSW,211,6.0,10.0,88,0.00,,---,0.02,VWS V14.01,2013-04-01 13:36:00,
2013-04-01 09:41:00,43.0,39.7,29.59,SW,226,4.0,8.0,88,0.00,,---,0.02,VWS V14.01,2013-04-01 13:41:00,
2013-04-01 09:46:00,43.3,40.0,29.58,South,191,4.0,7.0,88,0.00,,---,0.02,VWS V14.01,2013-04-01 13:46:00,
2013-04-01 09:51:00,43.8,40.2,29.58,SSW,212,5.0,10.0,87,0.00,,---,0.02,VWS V14.01,2013-04-01 13:51:00,
2013-04-01 09:58:00,44.3,40.7,29.58,WSW,249,8.0,8.0,87,0.00,,---,0.02,VWS V14.01,2013-04-01 13:58:00,
2013-04-01 10:03:00,44.7,40.5,29.58,South,174,5.0,12.0,85,0.00,,---,0.02,VWS V14.01,2013-04-01 14:03:00,
2013-04-01 10:08:00,44.8,40.6,29.58,SSW,212,5.0,11.0,85,0.00,,---,0.02,VWS V14.01,2013-04-01 14:08:00,
2013-04-01 10:13:00,44.9,40.7,29.58,SSW,198,7.0,11.0,85,0.00,,---,0.02,VWS V14.01,2013-04-01 14:13:00,
2013-04-01 10:19:00,45.3,40.8,29.58,West,269,3.0,12.0,84,0.00,,---,0.02,VWS V14.01,2013-04-01 14:19:00,
2013-04-01 10:24:00,45.8,40.9,29.57,SW,221,2.0,12.0,83,0.00,,---,0.02,VWS V14.01,2013-04-01 14:24:00,
2013-04-01 10:29:00,46.2,40.4,29.58,SW,221,7.0,11.0,80,0.00,,---,0.02,VWS V14.01,2013-04-01 14:29:00,
2013-04-01 10:34:00,46.2,40.1,29.58,West,278,6.0,13.0,79,0.00,,---,0.02,VWS V14.01,2013-04-01 14:34:00,
2013-04-01 10:39:00,46.4,40.6,29.57,West,281,4.0,14.0,80,0.00,,---,0.02,VWS V14.01,2013-04-01 14:39:00,
2013-04-01 10:44:00,47.1,40.9,29.58,WSW,254,9.0,12.0,79,0.00,,---,0.02,VWS V14.01,2013-04-01 14:44:00,
2013-04-01 10:49:00,47.1,40.9,29.57,West,277,3.0,11.0,79,0.00,,---,0.02,VWS V14.01,2013-04-01 14:49:00,
2013-04-01 10:54:00,46.8,39.7,29.57,SSW,210,7.0,12.0,76,0.00,,---,0.02,VWS V14.01,2013-04-01 14:54:00,
2013-04-01 10:59:00,46.5,38.3,29.57,WNW,283,5.0,16.0,73,0.00,,---,0.02,VWS V14.01,2013-04-01 14:59:00,
2013-04-01 11:04:00,46.7,38.9,29.57,West,263,6.0,19.0,74,0.00,,---,0.02,VWS V14.01,2013-04-01 15:04:00,
2013-04-01 11:09:00,47.5,39.3,29.57,SW,219,4.0,12.0,73,0.00,,---,0.02,VWS V14.01,2013-04-01 15:09:00,
2013-04-01 11:14:00,48.0,37.6,29.57,West,280,20.0,27.0,67,0.00,,---,0.02,VWS V14.01,2013-04-01 15:14:00,
2013-04-01 11:19:00,47.8,38.1,29.57,West,276,9.0,19.0,69,0.00,,---,0.02,VWS V14.01,2013-04-01 15:19:00,
2013-04-01 11:25:00,46.7,37.1,29.58,WNW,294,24.0,30.0,69,0.00,,---,0.02,VWS V14.01,2013-04-01 15:25:00,
2013-04-01 11:30:00,41.8,36.7,29.59,NW,319,23.0,32.0,82,0.00,,---,0.02,VWS V14.01,2013-04-01 15:30:00,
2013-04-01 11:35:00,40.0,36.7,29.60,WNW,301,10.0,27.0,88,0.00,,---,0.02,VWS V14.01,2013-04-01 15:35:00,
2013-04-01 11:40:00,39.7,37.3,29.59,WNW,288,8.0,17.0,91,0.00,,---,0.02,VWS V14.01,2013-04-01 15:40:00,
2013-04-01 11:45:00,39.6,37.2,29.60,WNW,291,5.0,17.0,91,0.00,,---,0.02,VWS V14.01,2013-04-01 15:45:00,
2013-04-01 11:50:00,39.5,37.1,29.60,WNW,288,10.0,14.0,91,0.00,,---,0.02,VWS V14.01,2013-04-01 15:50:00,
2013-04-01 11:55:00,39.5,37.4,29.60,West,278,11.0,16.0,92,0.00,,---,0.02,VWS V14.01,2013-04-01 15:55:00,
2013-04-01 12:00:00,39.4,37.3,29.60,WNW,302,8.0,20.0,92,0.00,,---,0.02,VWS V14.01,2013-04-01 16:00:00,
2013-04-01 12:05:00,38.8,36.7,29.60,NW,326,12.0,18.0,92,0.01,,---,0.03,VWS V14.01,2013-04-01 16:05:00,
2013-04-01 12:10:00,38.3,36.2,29.60,WNW,295,12.0,19.0,92,0.01,,---,0.03,VWS V14.01,2013-04-01 16:10:00,
2013-04-01 12:15:00,37.9,36.1,29.61,NW,315,9.0,21.0,93,0.01,,---,0.03,VWS V14.01,2013-04-01 16:15:00,
2013-04-01 12:20:00,37.9,35.5,29.61,WNW,290,12.0,26.0,91,0.01,,---,0.03,VWS V14.01,2013-04-01 16:20:00,
2013-04-01 12:25:00,38.1,35.4,29.61,West,264,12.0,20.0,90,0.01,,---,0.03,VWS V14.01,2013-04-01 16:25:00,
2013-04-01 12:31:00,38.6,35.4,29.61,NW,309,10.0,23.0,88,0.01,,---,0.03,VWS V14.01,2013-04-01 16:31:00,
2013-04-01 12:36:00,38.7,34.9,29.60,West,277,11.0,21.0,86,0.01,,---,0.03,VWS V14.01,2013-04-01 16:36:00,
2013-04-01 12:41:00,38.7,34.9,29.60,WNW,291,8.0,22.0,86,0.01,,---,0.03,VWS V14.01,2013-04-01 16:41:00,
2013-04-01 12:46:00,38.9,34.8,29.61,West,273,17.0,26.0,85,0.01,,---,0.03,VWS V14.01,2013-04-01 16:46:00,
2013-04-01 12:51:00,39.0,34.9,29.61,WNW,285,18.0,23.0,85,0.01,,---,0.03,VWS V14.01,2013-04-01 16:51:00,
2013-04-01 12:56:00,39.0,35.2,29.61,WNW,286,10.0,22.0,86,0.01,,---,0.03,VWS V14.01,2013-04-01 16:56:00,
2013-04-01 13:01:00,36.8,33.0,29.62,NW,307,13.0,28.0,86,0.01,,---,0.03,VWS V14.01,2013-04-01 17:01:00,
2013-04-01 13:06:00,34.0,31.1,29.63,WNW,300,16.0,21.0,89,0.00,,---,0.03,VWS V14.01,2013-04-01 17:06:00,
2013-04-01 13:11:00,32.5,30.4,29.63,NW,311,17.0,27.0,92,0.00,,---,0.03,VWS V14.01,2013-04-01 17:11:00,
2013-04-01 13:17:00,31.7,30.2,29.63,WNW,300,12.0,24.0,94,0.00,,---,0.03,VWS V14.01,2013-04-01 17:17:00,
2013-04-01 13:23:00,31.5,30.2,29.63,NNW,328,12.0,19.0,95,0.00,,---,0.03,VWS V14.01,2013-04-01 17:23:00,
2013-04-01 13:28:00,31.4,30.4,29.63,WNW,300,10.0,18.0,96,0.00,,---,0.03,VWS V14.01,2013-04-01 17:28:00,
2013-04-01 13:33:00,31.4,30.4,29.64,WNW,293,9.0,15.0,96,0.00,,---,0.03,VWS V14.01,2013-04-01 17:33:00,
2013-04-01 13:38:00,31.4,30.4,29.64,NW,305,11.0,18.0,96,0.00,,---,0.03,VWS V14.01,2013-04-01 17:38:00,
2013-04-01 13:43:00,31.2,30.2,29.64,WNW,290,11.0,25.0,96,0.00,,---,0.03,VWS V14.01,2013-04-01 17:43:00,
2013-04-01 13:48:00,31.1,30.1,29.64,WNW,285,11.0,23.0,96,0.00,,---,0.03,VWS V14.01,2013-04-01 17:48:00,
2013-04-01 13:54:00,31.0,30.0,29.65,WNW,294,22.0,26.0,96,0.00,,---,0.03,VWS V14.01,2013-04-01 17:54:00,
2013-04-01 14:00:00,30.9,29.9,29.65,WNW,297,13.0,23.0,96,0.00,,---,0.03,VWS V14.01,2013-04-01 18:00:00,
2013-04-01 14:05:00,30.8,29.8,29.65,NW,319,12.0,28.0,96,0.00,,---,0.03,VWS V14.01,2013-04-01 18:05:00,
2013-04-01 14:10:00,30.9,29.9,29.65,WNW,285,12.0,25.0,96,0.00,,---,0.03,VWS V14.01,2013-04-01 18:10:00,
2013-04-01 14:15:00,31.0,30.0,29.65,WNW,301,12.0,19.0,96,0.00,,---,0.03,VWS V14.01,2013-04-01 18:15:00,
2013-04-01 14:20:00,30.9,29.9,29.65,NNW,333,14.0,22.0,96,0.00,,---,0.03,VWS V14.01,2013-04-01 18:20:00,
2013-04-01 14:25:00,30.8,29.8,29.65,NW,311,22.0,23.0,96,0.00,,---,0.03,VWS V14.01,2013-04-01 18:25:00,
2013-04-01 14:30:00,30.5,29.2,29.65,NNW,342,11.0,30.0,95,0.00,,---,0.03,VWS V14.01,2013-04-01 18:30:00,
2013-04-01 14:35:00,30.2,28.9,29.65,WSW,257,14.0,27.0,95,0.00,,---,0.03,VWS V14.01,2013-04-01 18:35:00,
2013-04-01 14:41:00,30.5,29.5,29.65,WNW,300,20.0,27.0,96,0.00,,---,0.03,VWS V14.01,2013-04-01 18:41:00,
2013-04-01 14:46:00,30.3,29.0,29.65,NW,321,14.0,19.0,95,0.00,,---,0.03,VWS V14.01,2013-04-01 18:46:00,
2013-04-01 14:51:00,30.0,28.7,29.66,NW,305,16.0,20.0,95,0.00,,---,0.03,VWS V14.01,2013-04-01 18:51:00,
2013-04-01 14:56:00,30.0,29.0,29.67,NW,316,9.0,19.0,96,0.00,,---,0.03,VWS V14.01,2013-04-01 18:56:00,
2013-04-01 15:01:00,29.9,28.9,29.67,NW,305,10.0,24.0,96,0.00,,---,0.03,VWS V14.01,2013-04-01 19:01:00,
2013-04-01 15:06:00,30.1,29.1,29.67,WNW,283,16.0,22.0,96,0.00,,---,0.03,VWS V14.01,2013-04-01 19:06:00,
2013-04-01 15:11:00,29.8,28.5,29.67,NW,305,20.0,28.0,95,0.00,,---,0.03,VWS V14.01,2013-04-01 19:11:00,
2013-04-01 15:16:00,30.1,28.6,29.67,WNW,295,21.0,24.0,94,0.00,,---,0.03,VWS V14.01,2013-04-01 19:16:00,
2013-04-01 15:21:00,30.2,28.4,29.68,NW,307,14.0,32.0,93,0.00,,---,0.03,VWS V14.01,2013-04-01 19:21:00,
2013-04-01 15:26:00,30.3,28.5,29.67,West,278,13.0,24.0,93,0.00,,---,0.03,VWS V14.01,2013-04-01 19:26:00,
2013-04-01 15:32:00,30.1,27.5,29.67,West,280,13.0,28.0,90,0.00,,---,0.03,VWS V14.01,2013-04-01 19:32:00,
2013-04-01 15:37:00,30.1,27.5,29.68,WNW,300,9.0,29.0,90,0.00,,---,0.03,VWS V14.01,2013-04-01 19:37:00,
2013-04-01 15:42:00,30.5,26.8,29.68,West,278,17.0,31.0,86,0.00,,---,0.03,VWS V14.01,2013-04-01 19:42:00,
2013-04-01 15:47:00,30.7,26.7,29.68,NW,305,14.0,30.0,85,0.00,,---,0.03,VWS V14.01,2013-04-01 19:47:00,
2013-04-01 15:53:00,31.2,27.2,29.68,WNW,300,19.0,27.0,85,0.00,,---,0.03,VWS V14.01,2013-04-01 19:53:00,
2013-04-01 15:58:00,31.6,27.6,29.68,NW,304,10.0,26.0,85,0.00,,---,0.03,VWS V14.01,2013-04-01 19:58:00,
2013-04-01 16:03:00,31.7,27.7,29.68,WNW,300,14.0,26.0,85,0.00,,---,0.03,VWS V14.01,2013-04-01 20:03:00,
2013-04-01 16:08:00,30.9,26.9,29.68,WNW,291,18.0,27.0,85,0.00,,---,0.03,VWS V14.01,2013-04-01 20:08:00,
2013-04-01 16:13:00,30.9,26.6,29.68,NNW,346,23.0,24.0,84,0.00,,---,0.03,VWS V14.01,2013-04-01 20:13:00,
2013-04-01 16:18:00,30.8,26.8,29.68,WNW,293,15.0,24.0,85,0.00,,---,0.03,VWS V14.01,2013-04-01 20:18:00,
2013-04-01 16:23:00,30.9,26.1,29.68,NW,315,14.0,22.0,82,0.00,,---,0.03,VWS V14.01,2013-04-01 20:23:00,
2013-04-01 16:28:00,31.2,26.4,29.69,WSW,255,12.0,22.0,82,0.00,,---,0.03,VWS V14.01,2013-04-01 20:28:00,
2013-04-01 16:33:00,32.1,26.3,29.69,NW,313,13.0,27.0,79,0.00,,---,0.03,VWS V14.01,2013-04-01 20:33:00,
2013-04-01 16:38:00,33.1,26.4,29.69,WNW,302,26.0,27.0,76,0.00,,---,0.03,VWS V14.01,2013-04-01 20:38:00,
2013-04-01 16:43:00,33.6,25.5,29.69,NW,317,16.0,33.0,72,0.00,,---,0.03,VWS V14.01,2013-04-01 20:43:00,
2013-04-01 16:48:00,33.9,24.1,29.70,WNW,298,23.0,28.0,67,0.00,,---,0.03,VWS V14.01,2013-04-01 20:48:00,
2013-04-01 16:54:00,34.0,23.5,29.70,NW,311,13.0,28.0,65,0.00,,---,0.03,VWS V14.01,2013-04-01 20:54:00,
2013-04-01 16:59:00,32.9,24.9,29.71,WNW,282,18.0,30.0,72,0.00,,---,0.03,VWS V14.01,2013-04-01 20:59:00,
2013-04-01 17:04:00,32.1,24.4,29.71,WNW,295,10.0,30.0,73,0.00,,---,0.03,VWS V14.01,2013-04-01 21:04:00,
2013-04-01 17:09:00,31.9,24.6,29.72,NW,314,11.0,27.0,74,0.00,,---,0.03,VWS V14.01,2013-04-01 21:09:00,
2013-04-01 17:14:00,31.9,24.6,29.72,WNW,292,14.0,23.0,74,0.00,,---,0.03,VWS V14.01,2013-04-01 21:14:00,
2013-04-01 17:19:00,31.8,24.1,29.72,WNW,302,16.0,27.0,73,0.00,,---,0.03,VWS V14.01,2013-04-01 21:19:00,
2013-04-01 17:24:00,32.1,24.4,29.72,WNW,294,23.0,25.0,73,0.00,,---,0.03,VWS V14.01,2013-04-01 21:24:00,
2013-04-01 17:29:00,32.3,24.3,29.72,WNW,284,15.0,29.0,72,0.00,,---,0.03,VWS V14.01,2013-04-01 21:29:00,
2013-04-01 17:34:00,31.9,23.6,29.72,NW,305,18.0,29.0,71,0.00,,---,0.03,VWS V14.01,2013-04-01 21:34:00,
2013-04-01 17:39:00,31.2,23.9,29.72,WNW,293,13.0,26.0,74,0.00,,---,0.03,VWS V14.01,2013-04-01 21:39:00,
2013-04-01 17:44:00,31.0,23.7,29.72,NW,308,14.0,26.0,74,0.00,,---,0.03,VWS V14.01,2013-04-01 21:44:00,
2013-04-01 17:49:00,31.0,23.7,29.72,NW,305,15.0,23.0,74,0.00,,---,0.03,VWS V14.01,2013-04-01 21:49:00,
2013-04-01 17:54:00,31.2,22.6,29.73,NW,304,13.0,24.0,70,0.00,,---,0.03,VWS V14.01,2013-04-01 21:54:00,
2013-04-01 17:59:00,31.7,18.6,29.73,NW,308,17.0,36.0,58,0.00,,---,0.03,VWS V14.01,2013-04-01 21:59:00,
2013-04-01 18:04:00,31.9,17.2,29.73,WNW,284,11.0,35.0,54,0.00,,---,0.03,VWS V14.01,2013-04-01 22:04:00,
2013-04-01 18:09:00,31.8,16.6,29.73,WNW,297,11.0,35.0,53,0.00,,---,0.03,VWS V14.01,2013-04-01 22:09:00,
2013-04-01 18:14:00,31.7,17.0,29.74,WNW,297,18.0,32.0,54,0.00,,---,0.03,VWS V14.01,2013-04-01 22:14:00,
2013-04-01 18:19:00,31.6,16.0,29.75,WNW,301,10.0,33.0,52,0.00,,---,0.03,VWS V14.01,2013-04-01 22:19:00,
2013-04-01 18:24:00,31.5,15.5,29.74,WNW,285,23.0,29.0,51,0.00,,---,0.03,VWS V14.01,2013-04-01 22:24:00,
2013-04-01 18:29:00,31.5,16.4,29.74,NW,311,21.0,26.0,53,0.00,,---,0.03,VWS V14.01,2013-04-01 22:29:00,
2013-04-01 18:34:00,31.6,16.0,29.76,WNW,292,11.0,25.0,52,0.00,,---,0.03,VWS V14.01,2013-04-01 22:34:00,
2013-04-01 18:39:00,31.6,15.6,29.76,WNW,283,12.0,23.0,51,0.00,,---,0.03,VWS V14.01,2013-04-01 22:39:00,
2013-04-01 18:44:00,31.3,14.4,29.76,WNW,287,23.0,28.0,49,0.00,,---,0.03,VWS V14.01,2013-04-01 22:44:00,
2013-04-01 18:49:00,31.1,14.6,29.76,WNW,288,11.0,24.0,50,0.00,,---,0.03,VWS V14.01,2013-04-01 22:49:00,
2013-04-01 18:54:00,30.7,14.3,29.77,NW,307,9.0,21.0,50,0.00,,---,0.03,VWS V14.01,2013-04-01 22:54:00,
2013-04-01 18:59:00,30.3,18.1,29.77,NW,311,8.0,13.0,60,0.00,,---,0.03,VWS V14.01,2013-04-01 22:59:00,
2013-04-01 19:04:00,29.6,18.9,29.78,North,9,10.0,17.0,64,0.00,,---,0.03,VWS V14.01,2013-04-01 23:04:00,
2013-04-01 19:09:00,29.0,19.4,29.78,NW,313,13.0,26.0,67,0.00,,---,0.03,VWS V14.01,2013-04-01 23:09:00,
2013-04-01 19:14:00,28.6,19.7,29.78,WNW,288,17.0,18.0,69,0.00,,---,0.03,VWS V14.01,2013-04-01 23:14:00,
2013-04-01 19:19:00,28.3,19.5,29.78,NNW,330,12.0,16.0,69,0.00,,---,0.03,VWS V14.01,2013-04-01 23:19:00,
2013-04-01 19:24:00,28.1,19.3,29.78,WNW,299,13.0,28.0,69,0.00,,---,0.03,VWS V14.01,2013-04-01 23:24:00,
2013-04-01 19:29:00,27.9,19.1,29.78,NW,312,14.0,28.0,69,0.00,,---,0.03,VWS V14.01,2013-04-01 23:29:00,
2013-04-01 19:34:00,27.7,18.9,29.79,WNW,301,15.0,28.0,69,0.00,,---,0.03,VWS V14.01,2013-04-01 23:34:00,
2013-04-01 19:39:00,27.6,19.4,29.79,NW,309,16.0,22.0,71,0.00,,---,0.03,VWS V14.01,2013-04-01 23:39:00,
2013-04-01 19:44:00,27.4,19.2,29.79,WNW,302,21.0,22.0,71,0.00,,---,0.03,VWS V14.01,2013-04-01 23:44:00,
2013-04-01 19:49:00,27.2,19.1,29.79,WNW,298,13.0,21.0,71,0.00,,---,0.03,VWS V14.01,2013-04-01 23:49:00,
2013-04-01 19:54:00,27.1,19.3,29.79,WNW,285,17.0,22.0,72,0.00,,---,0.03,VWS V14.01,2013-04-01 23:54:00,
2013-04-01 19:59:00,27.1,18.6,29.80,WNW,289,17.0,20.0,70,0.00,,---,0.03,VWS V14.01,2013-04-01 23:59:00,
2013-04-01 20:04:00,27.1,18.3,29.79,WNW,287,16.0,25.0,69,0.00,,---,0.03,VWS V14.01,2013-04-02 00:04:00,
2013-04-01 20:09:00,27.0,18.2,29.79,West,273,15.0,21.0,69,0.00,,---,0.03,VWS V14.01,2013-04-02 00:09:00,
2013-04-01 20:14:00,27.0,18.2,29.80,WNW,300,19.0,25.0,69,0.00,,---,0.03,VWS V14.01,2013-04-02 00:14:00,
2013-04-01 20:19:00,26.9,18.4,29.80,WNW,284,16.0,23.0,70,0.00,,---,0.03,VWS V14.01,2013-04-02 00:19:00,
2013-04-01 20:24:00,27.0,18.9,29.81,NW,305,15.0,19.0,71,0.00,,---,0.03,VWS V14.01,2013-04-02 00:24:00,
2013-04-01 20:29:00,26.9,19.4,29.81,WNW,299,8.0,15.0,73,0.00,,---,0.03,VWS V14.01,2013-04-02 00:29:00,
2013-04-01 20:34:00,26.4,20.2,29.81,WNW,301,8.0,16.0,77,0.00,,---,0.03,VWS V14.01,2013-04-02 00:34:00,
2013-04-01 20:39:00,26.0,21.0,29.81,WNW,302,6.0,18.0,81,0.00,,---,0.03,VWS V14.01,2013-04-02 00:39:00,
2013-04-01 20:44:00,25.8,20.8,29.81,WNW,303,12.0,22.0,81,0.00,,---,0.03,VWS V14.01,2013-04-02 00:44:00,
2013-04-01 20:49:00,25.5,20.5,29.82,NNW,329,14.0,23.0,81,0.00,,---,0.03,VWS V14.01,2013-04-02 00:49:00,
2013-04-01 20:54:00,25.3,20.3,29.82,WNW,294,11.0,28.0,81,0.00,,---,0.03,VWS V14.01,2013-04-02 00:54:00,
2013-04-01 20:59:00,25.3,20.6,29.82,NW,305,7.0,22.0,82,0.00,,---,0.03,VWS V14.01,2013-04-02 00:59:00,
2013-04-01 21:04:00,25.3,20.6,29.82,WNW,293,7.0,14.0,82,0.00,,---,0.03,VWS V14.01,2013-04-02 01:04:00,
2013-04-01 21:09:00,25.2,20.5,29.82,WNW,291,10.0,24.0,82,0.00,,---,0.03,VWS V14.01,2013-04-02 01:09:00,
2013-04-01 21:14:00,25.1,20.7,29.82,NW,306,13.0,21.0,83,0.00,,---,0.03,VWS V14.01,2013-04-02 01:14:00,
2013-04-01 21:19:00,25.0,20.3,29.83,NW,319,14.0,23.0,82,0.00,,---,0.03,VWS V14.01,2013-04-02 01:19:00,
2013-04-01 21:24:00,25.0,20.6,29.83,NW,309,8.0,15.0,83,0.00,,---,0.03,VWS V14.01,2013-04-02 01:24:00,
2013-04-01 21:29:00,25.0,20.3,29.83,WNW,293,10.0,15.0,82,0.00,,---,0.03,VWS V14.01,2013-04-02 01:29:00,